This demonstration page uses our WeatherBlox Daily Observations layout. Learn more.

Left ArrowRight Arrow

Hourly Observations for May 29, 2020

Temp ( °F °C ) Dew Point ( °F °C ) Humidity (%) Winds ( mph kmh ) Pressure ( in mb ) Visibility ( mi km ) Precip ( " mm )
12:53 am 00:53 Clear 76 24.4 62 16.7 62 62 NNW 3 6 29.78 1009 10 16 0.00 0.00
1:53 am 01:53 Clear 76 24.4 61 16.1 60 60 N 6 9 29.78 1009 10 16 0.00 0.00
2:53 am 02:53 Clear 74 23.3 61 16.1 64 64 NW 5 7 29.78 1009 10 16 0.00 0.00
3:53 am 03:53 Clear 70 21.1 61 16.1 73 73 Calm 29.79 1009 10 16 0.00 0.00
4:53 am 04:53 Clear 68 20 61 16.1 78 78 undefined N/A 29.79 1009 10 16 0.00 0.00
5:53 am 05:53 Sunny 68 20 61 16.1 78 78 NE 3 6 29.80 1009 10 16 0.00 0.00
6:53 am 06:53 Sunny 71 21.7 62 16.7 73 73 Calm 29.81 1009 10 16 0.00 0.00
7:53 am 07:53 Sunny 76 24.4 61 16.1 60 60 NNE 3 6 29.80 1009 10 16 0.00 0.00
8:53 am 08:53 Sunny 81 27.2 62 16.7 53 53 N 3 6 29.79 1009 10 16 0.00 0.00
9:53 am 09:53 Sunny 84 28.9 61 16.1 46 46 WNW 3 6 29.78 1008 10 16 0.00 0.00
10:53 am 10:53 Sunny 88 31.1 60 15.6 39 39 WSW 5 7 29.75 1007 10 16 0.00 0.00
11:53 am 11:53 Sunny 90 32.2 59 15 35 35 SW 6 9 29.74 1007 10 16 0.00 0.00
12:53 pm 12:53 Sunny 92 33.3 60 15.6 34 34 VRB 5 7 29.72 1006 10 16 0.00 0.00
1:53 pm 13:53 Sunny 95 35 53 11.7 24 24 Calm 29.70 1006 10 16 0.00 0.00
2:53 pm 14:53 Sunny 97 36.1 56 13.3 25 25 Calm 29.68 1005 10 16 0.00 0.00
3:53 pm 15:53 Sunny 99 37.2 57 13.9 25 25 W 5 7 29.65 1004 10 16 0.00 0.00
4:53 pm 16:53 Sunny 98 36.7 53 11.7 22 22 W 5 7 29.64 1004 10 16 0.00 0.00
5:53 pm 17:53 Sunny 94 34.4 66 18.9 40 40 SSE 16 26 29.65 1004 10 16 0.00 0.00
6:53 pm 18:53 Sunny 89 31.7 60 15.6 38 38 S 17 28 29.65 1004 10 16 0.00 0.00
7:53 pm 19:53 Sunny 86 30 58 14.4 39 39 S 5 7 29.66 1004 10 16 0.00 0.00
8:53 pm 20:53 Clear 82 27.8 58 14.4 44 44 SE 7 11 29.67 1005 10 16 0.00 0.00
9:53 pm 21:53 Clear 82 27.8 58 14.4 44 44 undefined N/A 29.70 1006 10 16 0.00 0.00
10:53 pm 22:53 Clear 80 26.7 56 13.3 44 44 undefined N/A 29.72 1007 10 16 0.00 0.00
11:53 pm 23:53 Clear 77 25 56 13.3 48 48 S 9 15 29.73 1007 10 16 0.00 0.00

Powered by AerisWeather